Home > Weather > Gdańsk > Past weeks

Flag for Poland Past Weather in Gdańsk, Poland — Yesterday and Last 2 Weeks

Now
70 °F

Sunny.


Feels Like: 70 °F
Forecast: 60 / 79 °F
Wind: 9 mph from Northeast

Location: Gdansk-Rebiechowo

Current Time: Aug 27, 2016 at 5:24:03 PM

Latest Report: Aug 27, 2016 at 5:00 PM


Visibility: 10 mi

Pressure: 30.15 "Hg

Humidity: 78%

Dew Point: 63 °F

Location of GdańskLocation

Past Weather in Gdańsk — Graph

°F

Gdańsk Temperature Yesterday

Maximum temperature yesterday: 82 °F (at 4:00 PM)
Minimum temperature yesterday: 64 °F (at 1:30 AM)
Average temperature yesterday: 72 °F

High & Low Weather Summary for the Past Weeks

 TemperatureHumidityPressure
High82 °F (Aug 26, 4:00 PM)100% (Aug 15, 3:30 AM)30.33 "Hg (Aug 15, 3:30 AM)
Low50 °F (Aug 16, 5:00 AM)35% (Aug 26, 4:00 PM)29.71 "Hg (Aug 18, 5:00 AM)
Average63 °F79%30.05 "Hg
* Reported Aug 12 4:00 PM — Aug 27 4:00 PM, Gdańsk, Weather by CustomWeather, © 2016

Note: Actual official high and low records may vary slightly from our data, if they occured in-between our weather recording intervals... More about our weather records

Advertising

Gdańsk Weather History for the Previous 24 Hours

Scroll right to see more
 ConditionsComfort  
Time TempWeatherWind HumidityBarometerVisibility
4:00 PM
Sat, Aug 27
70 °FSunny.9 mph78%30.12 "Hg10 mi
3:30 PM72 °FSunny.10 mph73%30.12 "Hg10 mi
3:00 PM72 °FPassing clouds.10 mph78%30.12 "HgN/A
2:30 PM72 °FPassing clouds.9 mph78%30.15 "HgN/A
2:00 PM73 °FPassing clouds.9 mph74%30.15 "HgN/A
1:30 PM73 °FPassing clouds.10 mph74%30.15 "HgN/A
1:00 PM73 °FPassing clouds.9 mph69%30.15 "HgN/A
12:30 PM73 °FSunny.9 mph74%30.12 "Hg10 mi
12:00 PM73 °FSunny.9 mph69%30.12 "Hg10 mi
11:30 AM75 °FSunny.8 mph65%30.12 "Hg10 mi
11:00 AM75 °FPassing clouds.3 mph61%30.12 "HgN/A
10:30 AM75 °FSunny.3 mph65%30.12 "Hg10 mi
10:00 AM72 °FPassing clouds.6 mph69%30.12 "HgN/A
9:30 AM72 °FSunny.8 mph69%30.12 "Hg10 mi
9:00 AM70 °FSunny.10 mph69%30.09 "Hg10 mi
8:30 AM68 °FSunny.7 mph73%30.09 "Hg10 mi
8:00 AM66 °FSunny.8 mph73%30.09 "Hg10 mi
7:30 AM64 °FSunny.6 mph78%30.09 "Hg10 mi
7:00 AM63 °FSunny.5 mph83%30.09 "Hg10 mi
6:30 AM63 °FClear.5 mph77%30.09 "Hg10 mi
6:00 AM61 °FClear.5 mph83%30.09 "Hg10 mi
5:30 AM63 °FClear.5 mph77%30.09 "Hg10 mi
5:00 AM68 °FClear.7 mph64%30.07 "Hg10 mi
4:30 AM66 °FClear.6 mph68%30.09 "Hg10 mi
4:00 AM64 °FClear.2 mph73%30.09 "Hg10 mi
3:30 AM66 °FPassing clouds.3 mph68%30.09 "HgN/A
3:00 AM66 °FPassing clouds.3 mph68%30.09 "HgN/A
2:30 AM68 °FPassing clouds.3 mph64%30.07 "HgN/A
2:00 AM66 °FClear.3 mph68%30.07 "Hg10 mi
1:30 AM64 °FClear.2 mph78%30.07 "Hg10 mi
1:00 AM64 °FClear.1 mph78%30.07 "Hg10 mi
12:30 AM66 °FClear.2 mph73%30.07 "Hg10 mi
12:00 AM68 °FPassing clouds.3 mph69%30.07 "HgN/A
11:30 PM
Fri, Aug 26
70 °FClear.2 mph64%30.09 "Hg10 mi
11:00 PM70 °FClear.2 mph64%30.09 "Hg10 mi
10:30 PM70 °FClear.2 mph64%30.09 "Hg10 mi
10:00 PM70 °FClear.2 mph64%30.09 "Hg10 mi
9:30 PM72 °FClear.2 mph61%30.09 "Hg10 mi
9:00 PM72 °FClear.2 mph61%30.07 "Hg10 mi
8:30 PM73 °FSunny.2 mph57%30.07 "Hg10 mi
8:00 PM73 °FPassing clouds.3 mph57%30.07 "HgN/A
7:30 PM77 °FPassing clouds.3 mph47%30.07 "HgN/A
7:00 PM79 °FSunny.3 mph45%30.07 "Hg10 mi
6:30 PM81 °FPassing clouds.5 mph42%30.07 "HgN/A
6:00 PM81 °FPassing clouds.7 mph39%30.07 "HgN/A
5:30 PM81 °FPassing clouds.7 mph37%30.07 "HgN/A
5:00 PM82 °FSunny.6 mph35%30.09 "Hg10 mi
Weather by CustomWeather, © 2016

See weather overviewHow to use our weather pages